Location: Invercargill
(46.4000°S, 168.3500°E)
Time: 03:19:34
(UTC+13:00)

Cosmos 2322 - Pass Details

Date: 01 October 2021
Orbit: 840 x 855 km, 71.0° (Epoch: 24 October)

Event Time Altitude Azimuth Distance (km) Brightness Sun altitude
Rises 22:44:19 0° 204° (SSW) 3,436 7.8 -27.5°
Reaches altitude 10° 22:46:53 10° 197° (SSW) 2,496 6.8 -27.8°
Enters shadow 22:51:50 44° 141° (SE) 1,167 4.3 -28.5°
